EHI
0 0 0 0 0 0 0 0 0 0 0 0 0 0 0 0 0 0 0 0 0 0 0 0 1 5 10 13 9 4 1 1 0 0 0 0 0 0 0 0 0 0 0
0 0 0 0 0 0 0 0 0 0 0 0 0 0 0 0 0 0 0 0 0 0 0 0 0 2 5 9 11 9 6 3 2 1 0 0 0 0 0 0 0 0 0
0 0 0 0 0 0 0 0 0 0 0 0 0 0 0 0 0 0 0 0 0 0 0 0 0 0 1 4 8 12 11 7 6 5 3 1 0 0 0 0 0 0 0
0 0 0 0 0 0 0 0 0 0 0 0 0 0 0 0 0 0 0 0 0 0 0 0 0 0 0 0 3 7 12 12 10 9 6 3 2 1 0 0 0 0 0
0 0 0 0 0 0 0 0 0 0 0 0 0 0 0 0 0 0 0 0 0 0 0 0 0 0 0 0 0 2 8 11 11 10 8 4 2 1 0 0 0 0 0
0 0 0 0 0 0 0 0 0 0 0 0 0 0 0 0 0 0 0 0 0 0 0 0 0 0 0 0 0 1 3 5 7 8 7 3 2 1 0 0 0 0 0
0 0 0 0 0 0 0 0 0 0 0 0 0 0 0 0 0 0 0 0 0 0 0 0 0 0 0 0 0 0 0 1 3 5 4 2 2 1 0 0 0 0 0
0 0 0 0 0 0 0 0 0 0 0 0 0 0 0 0 0 0 0 0 0 0 0 0 0 0 0 0 0 0 0 0 1 2 2 2 1 0 0 0 0 0 0
0 0 0 0 0 0 0 0 0 0 0 0 0 0 0 0 0 0 0 0 0 0 0 0 0 0 0 0 0 0 0 0 0 0 1 1 0 0 0 0 0 0 0
0 0 0 0 0 0 0 0 0 0 0 0 0 0 0 0 0 0 0 0 0 0 0 0 0 0 0 0 0 0 0 0 0 0 0 0 0 0 0 0 0 0 0
0 0 0 0 0 0 0 0 0 0 0 0 0 0 0 0 0 0 0 0 0 0 0 0 0 0 0 0 0 0 0 0 0 0 0 0 0 0 0 0 0 0 0
0 0 0 0 0 0 0 0 0 0 0 0 0 0 0 0 0 0 0 0 0 0 0 0 0 0 0 0 0 0 0 0 0 0 0 0 0 0 0 0 0 0 0
0 0 0 0 0 0 0 0 0 0 0 0 0 0 0 0 0 0 0 0 0 0 0 0 0 0 0 0 0 0 0 0 0 0 0 0 0 0 0 0 0 0 0
0 0 0 0 0 0 0 0 0 0 0 0 0 0 0 0 0 0 0 0 0 0 0 0 0 0 0 0 0 0 0 0 0 0 0 0 0 0 0 0 0 0 0
0 0 0 0 0 0 0 0 0 0 0 0 0 0 0 0 0 0 0 0 0 0 0 0 0 0 0 0 0 0 0 0 0 0 0 0 0 0 0 0 0 0 0
0 0 0 0 0 0 0 0 0 0 0 0 0 0 0 0 0 0 0 0 0 0 0 0 0 0 0 0 0 0 0 0 0 0 0 0 0 0 0 0 0 0 0
0 0 0 0 0 0 0 0 0 0 0 0 0 0 0 0 0 0 0 0 0 0 0 0 0 0 0 0 0 0 0 0 0 0 0 0 0 0 0 0 0 0 0
0 0 0 0 0 0 0 0 0 0 0 0 0 0 0 0 0 0 0 0 0 0 0 0 0 0 0 0 0 0 0 0 0 0 0 0 0 0 0 0 0 0 0
0 0 0 0 0 0 0 0 0 0 0 0 0 0 0 0 0 0 0 0 0 0 0 0 0 0 0 0 0 0 0 0 0 0 0 0 0 0 0 0 0 0 0
0 0 0 0 0 0 0 0 0 0 0 0 0 0 0 0 0 0 0 0 0 0 0 0 0 0 0 0 0 0 0 0 0 0 0 0 0 0 0 0 0 0 0
0 0 0 0 0 0 0 0 0 0 0 0 0 0 0 0 0 0 0 0 0 0 0 0 0 0 0 0 0 0 0 0 0 0 0 0 0 0 0 0 0 0 0
0 0 0 0 0 0 0 0 0 0 0 0 0 0 0 0 0 0 0 0 0 0 0 0 0 0 0 0 0 0 0 0 0 0 0 0 0 0 0 0 0 0 0
0 0 0 0 0 0 0 0 0 0 0 0 0 0 0 0 0 0 0 0 0 0 0 0 0 0 0 0 0 0 0 0 0 0 0 0 0 0 0 0 0 0 0
0 0 0 0 0 0 0 0 0 0 0 0 0 0 0 0 0 0 0 0 0 0 0 0 0 0 0 0 0 0 0 0 0 0 0 0 0 0 0 0 0 0 0
0 0 0 0 0 0 0 0 0 0 0 0 0 0 0 0 0 0 0 0 0 0 0 0 0 0 0 0 0 0 0 0 0 0 0 0 0 0 0 0 0 0 0
0 0 0 0 0 0 0 0 0 0 0 0 0 0 0 0 0 0 0 0 0 0 0 0 0 0 0 0 0 0 0 0 0 0 0 0 0 0 0 0 0 0 0
Wind_Speed
15 14 14 14 15 15 14 14 14 14 14 14 14 14 13 13 11 10 10 8 8 8 8 9 11 11 9 9 9 9 8 8 7 5 5 4 3 2 4 3 4 4 7
15 15 15 15 15 15 16 15 15 14 14 15 15 15 15 15 14 13 12 11 10 10 9 8 9 8 11 10 9 10 9 9 8 8 6 6 6 5 5 5 5 6 7
16 16 16 16 16 16 16 16 15 15 15 15 15 16 16 16 15 15 14 13 12 11 10 10 9 8 9 8 9 10 9 9 9 7 7 5 5 6 7 6 7 6 8
16 16 16 16 16 16 16 16 16 15 16 15 16 16 16 16 17 16 15 14 13 12 11 11 10 9 8 8 8 9 8 9 9 8 7 7 6 8 7 6 5 5 6
16 16 16 16 16 16 16 16 16 16 16 16 16 16 16 15 15 16 15 15 14 14 13 12 11 10 9 7 5 6 7 7 8 9 8 8 7 9 8 6 7 6 5
16 17 17 17 17 17 16 16 16 16 16 16 16 16 16 15 14 14 14 15 14 14 13 12 11 12 12 12 11 9 8 8 8 8 8 9 9 10 9 9 9 8 5
16 16 17 17 17 17 17 17 17 16 16 15 16 16 16 16 13 12 15 15 14 13 13 11 11 11 13 12 12 12 11 11 10 8 8 9 9 10 11 13 11 9 6
16 16 16 17 17 17 17 17 17 15 14 14 14 15 15 15 14 14 14 15 15 14 13 13 12 10 11 11 11 10 10 11 12 10 9 9 7 7 12 12 11 9 10
16 16 17 17 17 18 17 17 15 14 14 14 13 14 14 13 12 14 14 13 12 14 13 13 13 12 10 9 10 10 9 9 11 12 10 8 5 5 8 10 12 12 8
16 16 17 17 17 17 17 16 14 13 13 13 12 12 12 11 11 14 15 11 12 11 10 11 11 11 9 12 11 10 10 9 9 10 10 9 8 9 13 14 14 13 10
15 16 17 16 16 16 15 13 13 12 11 11 11 9 9 9 10 13 14 10 9 10 9 10 9 13 10 10 10 10 8 7 8 9 9 9 9 9 12 12 12 13 13
15 16 16 16 15 13 14 13 12 10 10 9 7 7 5 5 7 10 12 10 7 8 8 7 6 13 12 11 10 8 6 6 8 8 9 9 9 10 9 9 9 7 5
15 15 15 15 14 12 12 12 10 8 6 5 4 4 3 3 5 9 11 10 9 8 7 2 4 9 10 10 11 9 9 8 9 9 9 9 8 10 10 8 9 9 9
14 14 13 13 13 11 9 8 8 7 6 4 4 3 3 4 5 7 9 10 11 11 9 7 8 8 8 7 8 10 10 9 9 9 8 7 8 9 10 10 11 11 10
14 13 12 12 11 10 9 7 7 6 5 6 4 3 2 2 1 1 4 6 8 8 8 8 9 10 10 10 9 9 8 9 10 9 8 8 9 10 10 11 12 12 11
12 11 10 9 9 9 8 6 2 2 3 3 4 5 3 2 3 1 2 2 1 2 6 8 9 9 9 9 9 8 8 8 8 8 8 9 10 11 11 11 12 12 13
12 11 10 9 9 9 8 7 6 1 3 2 3 3 3 3 1 2 3 4 4 6 8 9 8 9 9 8 8 7 7 7 7 8 9 10 11 12 13 13 13 12 13
12 11 10 9 8 8 7 7 5 5 3 1 3 3 2 0 1 2 5 7 6 8 9 8 8 8 7 7 6 6 6 6 6 8 9 10 12 13 14 14 13 14 14
11 9 9 9 8 7 6 6 5 5 4 3 1 3 3 3 4 4 6 6 5 6 7 7 7 7 6 6 6 5 5 6 7 7 9 11 12 13 14 14 13 16 15
9 11 11 10 9 7 6 6 5 4 3 3 2 2 1 2 3 4 5 5 4 5 5 6 5 5 4 4 5 5 6 6 7 8 9 10 12 13 15 15 14 15 13
9 9 11 10 7 7 6 5 5 5 4 3 2 3 5 3 1 2 2 3 4 4 4 4 4 4 4 4 5 6 7 6 7 8 9 11 12 13 13 13 14 14 13
8 8 8 8 7 6 7 5 4 4 4 3 1 1 2 3 1 1 2 2 2 2 2 2 3 2 3 4 5 6 7 7 8 9 9 10 11 12 13 13 13 12 12
9 9 8 7 7 5 5 4 4 4 3 3 3 2 1 2 2 2 2 2 2 1 1 1 1 1 2 3 4 5 7 7 8 9 10 11 11 12 12 12 14 14 14
9 9 9 8 7 6 5 4 4 4 4 3 3 3 2 2 2 3 3 2 1 1 1 1 1 3 5 5 5 5 6 8 9 9 13 13 12 12 12 12 13 15 14
8 8 8 7 7 6 4 3 3 3 2 2 2 2 2 2 2 2 2 2 2 2 2 2 2 4 7 8 8 8 8 8 7 10 11 12 13 13 14 14 12 13 13
8 8 7 7 6 6 5 3 2 2 2 1 1 2 2 2 2 3 2 3 3 3 3 3 5 7 8 8 11 10 8 7 6 7 9 11 13 12 13 12 14 13 14
Wind_Direction
316 315 311 307 305 301 294 289 286 283 281 273 266 260 255 249 240 233 239 239 244 254 262 261 253 249 242 231 224 220 220 226 234 208 179 156 173 174 126 104 82 76 82
315 312 308 306 303 300 297 297 293 285 278 272 266 259 254 250 243 236 236 237 237 241 245 253 258 252 244 241 231 222 217 217 224 221 194 185 179 160 134 117 96 79 80
313 310 308 306 306 304 302 298 294 288 281 274 267 260 254 251 247 240 236 235 235 237 237 238 243 246 248 241 239 231 221 213 219 218 204 187 171 150 135 114 100 94 88
311 308 306 305 305 303 301 298 294 289 284 277 268 261 255 250 246 241 236 233 233 234 234 234 233 232 238 242 240 241 233 219 211 216 205 188 176 161 154 144 129 109 94
309 306 306 307 305 302 299 297 294 290 285 279 271 262 255 249 243 237 235 233 232 232 229 229 228 222 225 230 237 241 242 227 213 212 209 197 184 170 170 160 139 120 93
307 307 308 306 305 303 301 298 294 289 286 282 273 265 257 250 239 227 229 234 231 230 231 228 225 211 213 217 228 235 241 238 223 216 215 209 196 184 170 157 149 149 130
307 305 306 306 305 304 302 301 297 293 290 285 277 268 260 252 243 218 215 232 233 230 229 227 228 214 200 210 211 219 232 240 244 239 237 231 207 190 173 167 171 168 138
306 307 308 307 305 305 302 300 298 295 290 285 277 270 264 252 229 210 206 225 232 229 228 226 227 228 208 206 207 206 213 219 224 229 240 245 237 198 183 175 154 119 109
308 310 310 309 306 304 302 300 298 295 289 284 275 269 262 252 224 201 199 221 225 226 226 225 222 222 202 192 216 216 214 217 218 222 234 256 274 202 174 155 144 140 133
311 310 309 308 305 303 302 302 299 296 289 286 278 270 260 248 217 195 199 219 220 221 219 223 220 228 193 186 216 222 221 216 208 205 215 225 222 185 171 173 164 158 145
311 308 308 308 306 304 305 304 303 299 293 287 281 271 261 245 207 191 196 217 217 221 220 215 209 189 198 197 222 232 228 225 214 209 206 206 202 192 185 183 177 170 164
310 309 309 311 310 311 310 308 307 305 300 296 286 276 258 224 199 186 192 214 241 238 236 234 196 169 186 196 215 230 219 222 227 215 208 200 193 185 183 178 169 162 157
311 310 310 313 312 313 314 315 316 314 307 302 289 274 247 210 182 180 192 204 221 240 246 260 130 158 182 202 215 219 217 221 224 218 213 201 188 173 162 148 131 114 104
312 312 312 314 315 319 318 319 321 318 314 313 304 285 248 211 196 189 196 199 206 222 234 206 179 186 224 244 207 206 221 226 222 219 210 190 168 161 158 148 141 135 127
313 312 313 315 318 315 319 327 327 337 345 323 315 306 285 236 170 158 228 213 214 212 213 215 212 206 211 217 220 218 218 215 215 215 198 180 168 159 154 149 148 148 147
314 314 313 316 316 315 321 330 359 322 358 351 333 323 320 13 24 328 259 270 266 185 218 221 219 218 220 219 218 217 216 218 213 200 186 177 166 158 152 151 156 157 154
313 312 311 314 314 317 325 331 341 36 154 107 42 4 333 336 302 226 202 193 193 195 223 228 224 223 224 222 218 219 215 211 205 192 179 171 162 156 154 156 160 160 158
314 309 306 309 312 317 325 331 342 348 357 90 114 72 37 3 202 187 177 186 192 208 229 232 229 227 227 225 219 216 211 201 196 187 175 167 161 157 157 160 164 163 159
315 314 316 311 310 317 327 337 350 359 359 4 23 116 127 150 161 175 202 233 220 209 221 234 238 236 229 222 214 208 205 198 190 179 170 164 159 158 158 161 161 161 159
311 308 305 305 309 322 335 350 358 1 1 7 1 12 130 207 190 181 217 239 236 227 227 232 236 241 235 220 206 197 193 189 183 175 164 162 159 159 159 159 157 160 162
313 310 303 296 312 329 338 353 356 353 358 6 17 31 343 294 258 228 238 242 246 244 240 245 242 238 228 208 194 186 182 177 172 164 159 160 157 155 156 155 157 160 161
314 310 310 311 316 327 332 341 354 360 357 352 1 129 261 278 297 279 271 267 267 271 270 259 254 235 211 183 169 167 166 161 159 155 154 150 146 148 150 153 158 162 162
319 318 314 310 309 312 307 340 0 7 3 353 351 2 322 326 339 329 306 302 303 306 282 242 232 186 145 139 145 150 148 147 150 151 148 145 145 148 151 155 160 161 163
326 326 322 319 318 323 336 357 9 16 23 17 356 352 358 1 0 357 340 345 7 29 79 119 146 139 135 131 133 138 140 143 148 151 149 144 144 147 149 154 159 162 164
333 335 331 326 326 328 339 4 22 31 39 25 357 345 2 4 1 357 358 22 40 58 75 95 117 133 138 135 129 124 123 134 145 146 146 143 143 145 148 153 156 159 159
338 341 337 333 331 330 337 1 24 40 64 58 9 5 14 12 28 45 64 76 85 92 99 106 121 126 130 123 116 114 116 120 127 138 139 138 141 143 147 149 152 154 156